Regional Weather Roundup
Issued by NWS Albany, NY

Home | Current Version | Previous Version | Graphics & Text | Print | Product List | Glossary On
Versions: 1 2 3 4 5 6 7 8 9 10 11 12 13 14 15 16 17 18 19 20 21 22 23 24 25 26 27 28 29 30 31 32 33 34 35 36 37 38 39 40 41 42 43 44 45 46 47 48 49 50
000
ASUS41 KALY 270410
RWRALY

NEW YORK STATE HOURLY WEATHER ROUNDUP
NATIONAL WEATHER SERVICE ALBANY NY
1100 PM EST MON JAN 26 2015

NOTE: "FAIR" INDICATES FEW OR NO CLOUDS BELOW 12,000 FEET WITH NO
SIGNIFICANT WEATHER AND/OR NO OBSTRUCTIONS TO VISIBILITY.

NYZ032-033-038>043-046>054-057>066-NYZ062>081-270500-
EAST


CITY           SKY/WX    TMP DP  RH WIND       PRES   REMARKS
ALBANY         LGT SNOW  16   8  71 N10       29.96F WCI   4
GLENS FALLS    CLOUDY    15   3  59 N13       29.99F WCI   1
POUGHKEEPSIE   LGT SNOW  20  13  74 N12       29.83F WCI   8
NEWBURGH       LGT SNOW  19  16  86 N16       29.81F WCI   5
MONTGOMERY     LGT SNOW  21  17  84 NE21G30   29.79F FOG     WCI   5
WHITE PLAINS   LGT SNOW  24  19  81 N14G26    29.70F VSB 1   WCI  12
ISLIP          HVY SNOW  25  22  88 N23G38    29.63F VSB 1/4 WCI  10
NEW YORK CITY  LGT SNOW  25  22  88 N15G23    29.73F VSB 3/4 WCI  13
CENTRAL PARK   LGT SNOW  25  20  81 NE12G30   29.73F VSB 3/4 WCI  14
$$

NYZ005>009-017-018-044>046-055-056-270500-
CENTRAL


CITY           SKY/WX    TMP DP  RH WIND       PRES   REMARKS
FULTON         CLOUDY    15   6  67 N9        29.96S WCI   3
SYRACUSE       CLOUDY    17   8  67 N7        29.94S WCI   8
ROME           CLOUDY    15   9  76 NW5       29.96S WCI   8
ELMIRA         LGT SNOW  18  15  88 NE5       29.86S FOG     WCI  11
BINGHAMTON     CLOUDY    16  13  88 NE10      29.78S WCI   4
MONTICELLO     CLOUDY    21  16  79 NE9G22    29.75F WCI  11
$$

NYZ026>034-041>043-270500-
NORTH


CITY           SKY/WX    TMP DP  RH WIND       PRES   REMARKS
WATERTOWN      CLOUDY     9  -3  58 NE15      30.03F WCI  -8
FORT DRUM      NOT AVBL
MASSENA        MOCLDY     4  -7  60 NE14      30.14F WCI -14
SARANAC LAKE   CLOUDY     3  -5  69 NE8       29.91F WCI -10
PLATTSBURGH    CLOUDY     5  -5  63 N12       30.11F WCI -11
$$

NYZ001>004-010>016-019>021-270500-
WEST


CITY           SKY/WX    TMP DP  RH WIND       PRES   REMARKS
NIAGARA FALLS  LGT SNOW  17  12  80 NE12      29.95R WCI   4
BUFFALO        LGT SNOW  16  11  80 NE10      29.93R WCI   4
DUNKIRK        LGT SNOW  17  13  84 NE10      29.91S FOG     WCI   5
JAMESTOWN      CLOUDY    16  12  86 NE7       29.80R WCI   6
WELLSVILLE     LGT SNOW  12   9  87 N6        29.78F FOG     WCI   3
ROCHESTER      LGT SNOW  19  15  84 E7        29.94F FOG     WCI  10
PENN YAN       LGT SNOW  15  12  88 VRB5      29.89S FOG     WCI   8
$$

             KEY
       WCI = WIND CHILL INDEX
       VSB = VISIBILITY
       HX  = HEAT INDEX
$$


USA.gov is the U.S. government's official web portal to all federal, state and local government web resources and services.